Time,TemperatureF,DewpointF,PressureIn,WindDirection,WindDirectionDegrees,WindSpeedMPH,WindSpeedGustMPH,Humidity,HourlyPrecipIn,Conditions,Clouds,dailyrainin,SoftwareType,DateUTC
2013-02-04 00:00:00,18.8,15.1,30.08,SSW,210,4.0,6.0,85,0.00,,,0.00,VWS V14.01,2013-02-04 05:00:00,
2013-02-04 00:01:00,18.8,15.1,30.08,WSW,242,2.0,6.0,85,0.00,,,0.00,VWS V14.01,2013-02-04 05:01:00,
2013-02-04 00:02:00,18.8,15.1,30.08,WSW,248,1.0,6.0,85,0.00,,,0.00,VWS V14.01,2013-02-04 05:02:00,
2013-02-04 00:07:00,18.8,15.1,30.08,WSW,240,1.0,6.0,85,0.00,,,0.00,VWS V14.01,2013-02-04 05:07:00,
2013-02-04 00:12:00,18.9,15.4,30.08,SSW,201,3.0,6.0,86,0.00,,,0.00,VWS V14.01,2013-02-04 05:12:00,
2013-02-04 00:17:00,18.8,15.6,30.08,SW,234,2.0,5.0,87,0.00,,,0.00,VWS V14.01,2013-02-04 05:17:00,
2013-02-04 00:22:00,18.8,15.6,30.08,SW,227,2.0,5.0,87,0.00,,,0.00,VWS V14.01,2013-02-04 05:22:00,
2013-02-04 00:27:00,18.8,15.8,30.08,SW,228,0.0,4.0,88,0.00,,,0.00,VWS V14.01,2013-02-04 05:27:00,
2013-02-04 00:32:00,18.8,15.8,30.08,WSW,241,0.0,4.0,88,0.00,,,0.00,VWS V14.01,2013-02-04 05:32:00,
2013-02-04 00:37:00,18.8,15.8,30.08,WSW,240,5.0,5.0,88,0.00,,,0.00,VWS V14.01,2013-02-04 05:37:00,
2013-02-04 00:42:00,18.8,16.1,30.08,SSW,209,1.0,5.0,89,0.00,,,0.00,VWS V14.01,2013-02-04 05:42:00,
2013-02-04 00:47:00,18.9,16.2,30.07,SW,236,1.0,5.0,89,0.00,,,0.00,VWS V14.01,2013-02-04 05:47:00,
2013-02-04 00:52:00,18.9,16.2,30.07,SW,226,2.0,5.0,89,0.00,,,0.00,VWS V14.01,2013-02-04 05:52:00,
2013-02-04 00:57:00,19.0,16.3,30.07,WSW,244,2.0,5.0,89,0.00,,,0.00,VWS V14.01,2013-02-04 05:57:00,
2013-02-04 01:02:00,19.1,16.7,30.07,SW,228,0.0,5.0,90,0.00,,,0.00,VWS V14.01,2013-02-04 06:02:00,
2013-02-04 01:07:00,19.1,16.7,30.07,WSW,244,2.0,4.0,90,0.00,,,0.00,VWS V14.01,2013-02-04 06:07:00,
2013-02-04 01:12:00,19.1,16.7,30.07,WSW,244,1.0,3.0,90,0.00,,,0.00,VWS V14.01,2013-02-04 06:12:00,
2013-02-04 01:17:00,19.1,16.7,30.07,WSW,244,0.0,4.0,90,0.00,,,0.00,VWS V14.01,2013-02-04 06:17:00,
2013-02-04 01:22:00,19.1,16.7,30.07,SW,234,2.0,5.0,90,0.00,,,0.00,VWS V14.01,2013-02-04 06:22:00,
2013-02-04 01:27:00,19.1,16.9,30.07,SSW,198,0.0,5.0,91,0.00,,,0.00,VWS V14.01,2013-02-04 06:27:00,
2013-02-04 01:32:00,19.2,17.0,30.07,WSW,237,1.0,5.0,91,0.00,,,0.00,VWS V14.01,2013-02-04 06:32:00,
2013-02-04 01:37:00,19.2,17.0,30.07,WSW,238,3.0,5.0,91,0.00,,,0.00,VWS V14.01,2013-02-04 06:37:00,
2013-02-04 01:42:00,19.2,17.0,30.07,WSW,240,0.0,5.0,91,0.00,,,0.00,VWS V14.01,2013-02-04 06:42:00,
2013-02-04 01:47:00,19.3,17.1,30.07,West,261,0.0,4.0,91,0.00,,,0.00,VWS V14.01,2013-02-04 06:47:00,
2013-02-04 01:52:00,19.3,17.1,30.07,West,259,2.0,4.0,91,0.00,,,0.00,VWS V14.01,2013-02-04 06:52:00,
2013-02-04 01:57:00,19.3,17.1,30.06,SSW,209,0.0,3.0,91,0.00,,,0.00,VWS V14.01,2013-02-04 06:57:00,
2013-02-04 02:02:00,19.2,17.0,30.06,SSW,209,0.0,3.0,91,0.00,,,0.00,VWS V14.01,2013-02-04 07:02:00,
2013-02-04 02:07:00,19.2,17.0,30.06,SSW,209,0.0,3.0,91,0.00,,,0.00,VWS V14.01,2013-02-04 07:07:00,
2013-02-04 02:12:00,19.2,17.0,30.06,SSW,209,1.0,3.0,91,0.00,,,0.00,VWS V14.01,2013-02-04 07:12:00,
2013-02-04 02:17:00,19.2,17.0,30.06,SSW,209,2.0,3.0,91,0.00,,,0.00,VWS V14.01,2013-02-04 07:17:00,
2013-02-04 02:21:00,19.2,17.0,30.06,SSW,209,1.0,3.0,91,0.00,,,0.00,VWS V14.01,2013-02-04 07:21:00,
2013-02-04 02:26:00,19.2,17.0,30.06,SSW,209,0.0,3.0,91,0.00,,,0.00,VWS V14.01,2013-02-04 07:26:00,
2013-02-04 02:31:00,19.3,17.4,30.06,SSW,209,2.0,3.0,92,0.00,,,0.00,VWS V14.01,2013-02-04 07:31:00,
2013-02-04 02:36:00,19.3,17.4,30.06,SSW,209,0.0,3.0,92,0.00,,,0.00,VWS V14.01,2013-02-04 07:36:00,
2013-02-04 02:41:00,19.2,17.3,30.06,SSW,209,0.0,3.0,92,0.00,,,0.00,VWS V14.01,2013-02-04 07:41:00,
2013-02-04 02:46:00,19.2,17.3,30.06,SSW,209,0.0,3.0,92,0.00,,,0.00,VWS V14.01,2013-02-04 07:46:00,
2013-02-04 02:51:00,19.2,17.3,30.06,SSW,209,0.0,3.0,92,0.00,,,0.00,VWS V14.01,2013-02-04 07:51:00,
2013-02-04 02:56:00,19.2,17.3,30.06,SSW,209,0.0,3.0,92,0.00,,,0.00,VWS V14.01,2013-02-04 07:56:00,
2013-02-04 03:01:00,19.2,17.3,30.06,SSW,209,0.0,3.0,92,0.00,,,0.00,VWS V14.01,2013-02-04 08:01:00,
2013-02-04 03:06:00,19.1,17.2,30.06,SSW,209,0.0,3.0,92,0.00,,,0.00,VWS V14.01,2013-02-04 08:06:00,
2013-02-04 03:11:00,19.1,17.2,30.05,SSW,209,0.0,2.0,92,0.00,,,0.00,VWS V14.01,2013-02-04 08:11:00,
2013-02-04 03:16:00,19.1,17.2,30.05,SSW,209,0.0,2.0,92,0.00,,,0.00,VWS V14.01,2013-02-04 08:16:00,
2013-02-04 03:21:00,19.1,17.2,30.05,SSW,209,0.0,2.0,92,0.00,,,0.00,VWS V14.01,2013-02-04 08:21:00,
2013-02-04 03:26:00,19.1,17.4,30.05,SSW,209,0.0,3.0,93,0.00,,,0.00,VWS V14.01,2013-02-04 08:26:00,
2013-02-04 03:31:00,19.1,17.4,30.04,SSW,209,0.0,3.0,93,0.00,,,0.00,VWS V14.01,2013-02-04 08:31:00,
2013-02-04 03:36:00,19.1,17.4,30.05,SSW,209,1.0,3.0,93,0.00,,,0.00,VWS V14.01,2013-02-04 08:36:00,
2013-02-04 03:41:00,19.2,17.5,30.04,SSW,209,1.0,3.0,93,0.00,,,0.00,VWS V14.01,2013-02-04 08:41:00,
2013-02-04 03:46:00,19.2,17.5,30.04,SSW,209,0.0,3.0,93,0.00,,,0.00,VWS V14.01,2013-02-04 08:46:00,
2013-02-04 03:51:00,19.2,17.5,30.03,SSW,209,0.0,2.0,93,0.00,,,0.00,VWS V14.01,2013-02-04 08:51:00,
2013-02-04 03:56:00,19.2,17.5,30.03,SSW,209,2.0,2.0,93,0.00,,,0.00,VWS V14.01,2013-02-04 08:56:00,
2013-02-04 04:01:00,19.2,17.5,30.03,South,186,2.0,3.0,93,0.00,,,0.00,VWS V14.01,2013-02-04 09:01:00,
2013-02-04 04:06:00,19.3,17.6,30.02,South,186,0.0,3.0,93,0.00,,,0.00,VWS V14.01,2013-02-04 09:06:00,
2013-02-04 04:11:00,19.3,17.6,30.02,South,186,0.0,3.0,93,0.00,,,0.00,VWS V14.01,2013-02-04 09:11:00,
2013-02-04 04:16:00,19.3,17.6,30.01,South,186,0.0,1.0,93,0.00,,,0.00,VWS V14.01,2013-02-04 09:16:00,
2013-02-04 04:21:00,19.3,17.6,30.01,South,186,0.0,0.0,93,0.00,,,0.00,VWS V14.01,2013-02-04 09:21:00,
2013-02-04 04:26:00,19.3,17.6,30.01,South,186,0.0,0.0,93,0.00,,,0.00,VWS V14.01,2013-02-04 09:26:00,
2013-02-04 04:31:00,19.3,17.6,30.00,South,186,0.0,0.0,93,0.00,,,0.00,VWS V14.01,2013-02-04 09:31:00,
2013-02-04 04:36:00,19.3,17.6,30.00,South,186,0.0,0.0,93,0.00,,,0.00,VWS V14.01,2013-02-04 09:36:00,
2013-02-04 04:41:00,19.3,17.6,30.00,South,186,0.0,1.0,93,0.00,,,0.00,VWS V14.01,2013-02-04 09:41:00,
2013-02-04 04:46:00,19.3,17.6,30.00,South,186,0.0,2.0,93,0.00,,,0.00,VWS V14.01,2013-02-04 09:46:00,
2013-02-04 04:51:00,19.4,17.7,30.00,South,186,0.0,2.0,93,0.00,,,0.00,VWS V14.01,2013-02-04 09:51:00,
2013-02-04 04:56:00,19.4,17.7,30.00,South,186,0.0,2.0,93,0.00,,,0.00,VWS V14.01,2013-02-04 09:56:00,
2013-02-04 05:01:00,19.5,17.8,30.00,South,186,0.0,2.0,93,0.00,,,0.00,VWS V14.01,2013-02-04 10:01:00,
2013-02-04 05:06:00,19.5,17.8,30.00,South,186,0.0,2.0,93,0.00,,,0.00,VWS V14.01,2013-02-04 10:06:00,
2013-02-04 05:11:00,19.5,17.8,30.00,South,186,0.0,2.0,93,0.00,,,0.00,VWS V14.01,2013-02-04 10:11:00,
2013-02-04 05:16:00,19.5,17.8,29.99,South,186,0.0,1.0,93,0.00,,,0.00,VWS V14.01,2013-02-04 10:16:00,
2013-02-04 05:21:00,19.6,17.9,29.99,South,186,0.0,1.0,93,0.00,,,0.00,VWS V14.01,2013-02-04 10:21:00,
2013-02-04 05:26:00,19.6,18.2,30.00,South,186,0.0,1.0,94,0.00,,,0.00,VWS V14.01,2013-02-04 10:26:00,
2013-02-04 05:31:00,19.6,18.2,29.99,South,186,0.0,0.0,94,0.00,,,0.00,VWS V14.01,2013-02-04 10:31:00,
2013-02-04 05:36:00,19.7,18.3,30.00,South,186,0.0,2.0,94,0.00,,,0.00,VWS V14.01,2013-02-04 10:36:00,
2013-02-04 05:41:00,19.7,18.3,29.99,South,186,0.0,2.0,94,0.00,,,0.00,VWS V14.01,2013-02-04 10:41:00,
2013-02-04 05:46:00,19.8,18.4,29.99,South,186,0.0,2.0,94,0.00,,,0.00,VWS V14.01,2013-02-04 10:46:00,
2013-02-04 05:51:00,19.8,18.4,29.99,South,186,0.0,1.0,94,0.00,,,0.00,VWS V14.01,2013-02-04 10:51:00,
2013-02-04 05:56:00,19.9,18.5,29.99,South,186,0.0,0.0,94,0.00,,,0.00,VWS V14.01,2013-02-04 10:56:00,
2013-02-04 06:01:00,19.9,18.5,29.98,South,186,0.0,1.0,94,0.00,,,0.00,VWS V14.01,2013-02-04 11:01:00,
2013-02-04 06:06:00,20.0,18.5,29.98,South,186,0.0,1.0,94,0.00,,,0.00,VWS V14.01,2013-02-04 11:06:00,
2013-02-04 06:11:00,20.0,18.5,29.98,South,186,0.0,0.0,94,0.00,,,0.00,VWS V14.01,2013-02-04 11:11:00,
2013-02-04 06:16:00,20.0,18.5,29.98,South,186,0.0,0.0,94,0.00,,,0.00,VWS V14.01,2013-02-04 11:16:00,
2013-02-04 06:21:00,20.0,18.5,29.98,South,185,0.0,0.0,94,0.00,,,0.00,VWS V14.01,2013-02-04 11:21:00,
2013-02-04 06:26:00,20.1,18.6,29.98,South,185,0.0,0.0,94,0.00,,,0.00,VWS V14.01,2013-02-04 11:26:00,
2013-02-04 06:31:00,20.1,18.6,29.98,South,185,0.0,0.0,94,0.00,,,0.00,VWS V14.01,2013-02-04 11:31:00,
2013-02-04 06:36:00,20.1,18.6,29.97,South,185,0.0,0.0,94,0.00,,,0.00,VWS V14.01,2013-02-04 11:36:00,
2013-02-04 06:41:00,20.1,18.6,29.97,South,185,0.0,0.0,94,0.00,,,0.00,VWS V14.01,2013-02-04 11:41:00,
2013-02-04 06:46:00,20.1,18.6,29.97,South,185,0.0,0.0,94,0.00,,,0.00,VWS V14.01,2013-02-04 11:46:00,
2013-02-04 06:51:00,20.2,18.8,29.97,South,185,0.0,0.0,94,0.00,,,0.00,VWS V14.01,2013-02-04 11:51:00,
2013-02-04 06:56:00,20.2,18.8,29.97,South,185,0.0,0.0,94,0.00,,,0.00,VWS V14.01,2013-02-04 11:56:00,
2013-02-04 07:01:00,20.2,18.8,29.97,South,185,0.0,0.0,94,0.00,,,0.00,VWS V14.01,2013-02-04 12:01:00,
2013-02-04 07:06:00,20.2,18.8,29.97,South,185,0.0,0.0,94,0.00,,,0.00,VWS V14.01,2013-02-04 12:06:00,
2013-02-04 07:11:00,20.2,18.8,29.97,South,185,0.0,0.0,94,0.00,,,0.00,VWS V14.01,2013-02-04 12:11:00,
2013-02-04 07:16:00,20.2,18.8,29.97,South,185,0.0,2.0,94,0.00,,,0.00,VWS V14.01,2013-02-04 12:16:00,
2013-02-04 07:21:00,20.2,18.8,29.98,South,185,0.0,2.0,94,0.00,,,0.00,VWS V14.01,2013-02-04 12:21:00,
2013-02-04 07:26:00,20.2,18.8,29.98,South,185,0.0,0.0,94,0.00,,,0.00,VWS V14.01,2013-02-04 12:26:00,
2013-02-04 07:31:00,20.2,18.8,29.98,South,185,0.0,0.0,94,0.00,,,0.00,VWS V14.01,2013-02-04 12:31:00,
2013-02-04 07:36:00,20.2,18.8,29.98,South,185,0.0,0.0,94,0.00,,,0.00,VWS V14.01,2013-02-04 12:36:00,
2013-02-04 07:41:00,20.2,18.8,29.98,South,185,0.0,0.0,94,0.00,,,0.00,VWS V14.01,2013-02-04 12:41:00,
2013-02-04 07:46:00,20.2,18.8,29.98,South,185,0.0,0.0,94,0.00,,,0.00,VWS V14.01,2013-02-04 12:46:00,
2013-02-04 07:51:00,20.3,18.9,29.98,South,185,0.0,0.0,94,0.00,,,0.00,VWS V14.01,2013-02-04 12:51:00,
2013-02-04 07:56:00,20.3,18.9,29.98,South,185,0.0,0.0,94,0.00,,,0.00,VWS V14.01,2013-02-04 12:56:00,
2013-02-04 08:01:00,20.3,18.9,29.98,South,185,0.0,0.0,94,0.00,,,0.00,VWS V14.01,2013-02-04 13:01:00,
2013-02-04 08:06:00,20.3,18.9,29.98,South,185,0.0,0.0,94,0.00,,,0.00,VWS V14.01,2013-02-04 13:06:00,
2013-02-04 08:11:00,20.3,18.9,29.98,South,185,0.0,0.0,94,0.00,,,0.00,VWS V14.01,2013-02-04 13:11:00,
2013-02-04 08:16:00,20.3,18.9,29.98,South,185,0.0,0.0,94,0.00,,,0.00,VWS V14.01,2013-02-04 13:16:00,
2013-02-04 08:21:00,20.4,19.0,29.98,South,185,0.0,0.0,94,0.00,,,0.00,VWS V14.01,2013-02-04 13:21:00,
2013-02-04 08:26:00,20.4,19.0,29.98,South,185,0.0,0.0,94,0.00,,,0.00,VWS V14.01,2013-02-04 13:26:00,
2013-02-04 08:31:00,20.5,19.0,29.98,South,185,0.0,0.0,94,0.00,,,0.00,VWS V14.01,2013-02-04 13:31:00,
2013-02-04 08:36:00,20.5,19.0,29.98,South,185,0.0,0.0,94,0.00,,,0.00,VWS V14.01,2013-02-04 13:36:00,
2013-02-04 08:41:00,20.6,19.4,29.98,South,185,0.0,0.0,95,0.00,,,0.00,VWS V14.01,2013-02-04 13:41:00,
2013-02-04 08:46:00,20.7,19.5,29.98,South,185,0.0,0.0,95,0.00,,,0.00,VWS V14.01,2013-02-04 13:46:00,
2013-02-04 08:51:00,20.7,19.5,29.98,South,185,0.0,0.0,95,0.00,,,0.00,VWS V14.01,2013-02-04 13:51:00,
2013-02-04 08:56:00,20.9,19.7,29.98,South,185,0.0,1.0,95,0.00,,,0.00,VWS V14.01,2013-02-04 13:56:00,
2013-02-04 09:01:00,21.1,19.9,29.98,South,184,0.0,1.0,95,0.00,,,0.00,VWS V14.01,2013-02-04 14:01:00,
2013-02-04 09:06:00,21.2,20.0,29.97,South,184,0.0,1.0,95,0.00,,,0.00,VWS V14.01,2013-02-04 14:06:00,
2013-02-04 09:11:00,21.3,20.1,29.98,South,184,0.0,0.0,95,0.00,,,0.00,VWS V14.01,2013-02-04 14:11:00,
2013-02-04 09:16:00,21.5,20.0,29.97,South,184,0.0,0.0,94,0.00,,,0.00,VWS V14.01,2013-02-04 14:16:00,
2013-02-04 09:21:00,21.6,20.1,29.97,South,184,0.0,0.0,94,0.00,,,0.00,VWS V14.01,2013-02-04 14:21:00,
2013-02-04 09:26:00,21.7,20.2,29.96,South,184,0.0,0.0,94,0.00,,,0.00,VWS V14.01,2013-02-04 14:26:00,
2013-02-04 09:31:00,21.8,20.3,29.96,South,184,0.0,2.0,94,0.00,,,0.00,VWS V14.01,2013-02-04 14:31:00,
2013-02-04 09:35:00,21.9,20.4,29.96,South,184,0.0,2.0,94,0.00,,,0.00,VWS V14.01,2013-02-04 14:35:00,
2013-02-04 09:40:00,22.0,20.5,29.96,South,184,0.0,1.0,94,0.00,,,0.00,VWS V14.01,2013-02-04 14:40:00,
2013-02-04 09:45:00,22.1,20.6,29.95,ENE,74,0.0,1.0,94,0.00,,,0.00,VWS V14.01,2013-02-04 14:45:00,
2013-02-04 09:50:00,22.2,20.7,29.95,ENE,74,0.0,2.0,94,0.00,,,0.00,VWS V14.01,2013-02-04 14:50:00,
2013-02-04 09:55:00,22.2,20.7,29.95,ENE,74,0.0,3.0,94,0.00,,,0.00,VWS V14.01,2013-02-04 14:55:00,
2013-02-04 10:00:00,22.4,20.9,29.95,ENE,74,0.0,3.0,94,0.00,,,0.00,VWS V14.01,2013-02-04 15:00:00,
2013-02-04 10:05:00,22.5,21.0,29.94,ENE,74,0.0,3.0,94,0.00,,,0.00,VWS V14.01,2013-02-04 15:05:00,
2013-02-04 10:10:00,22.6,21.1,29.94,ENE,74,0.0,2.0,94,0.00,,,0.00,VWS V14.01,2013-02-04 15:10:00,
2013-02-04 10:15:00,22.8,21.3,29.94,ENE,74,0.0,1.0,94,0.00,,,0.00,VWS V14.01,2013-02-04 15:15:00,
2013-02-04 10:20:00,22.9,21.4,29.93,ENE,74,0.0,2.0,94,0.00,,,0.00,VWS V14.01,2013-02-04 15:20:00,
2013-02-04 10:25:00,23.0,21.5,29.94,ENE,74,1.0,2.0,94,0.00,,,0.00,VWS V14.01,2013-02-04 15:25:00,
2013-02-04 10:30:00,23.2,21.5,29.94,ENE,74,0.0,2.0,93,0.00,,,0.00,VWS V14.01,2013-02-04 15:30:00,
2013-02-04 10:35:00,23.3,21.6,29.93,ENE,74,0.0,2.0,93,0.00,,,0.00,VWS V14.01,2013-02-04 15:35:00,
2013-02-04 10:40:00,23.5,21.8,29.93,ENE,74,0.0,2.0,93,0.00,,,0.00,VWS V14.01,2013-02-04 15:40:00,
2013-02-04 10:45:00,23.8,22.1,29.93,SE,140,0.0,2.0,93,0.00,,,0.00,VWS V14.01,2013-02-04 15:45:00,
2013-02-04 10:50:00,23.9,22.2,29.93,SE,144,0.0,2.0,93,0.00,,,0.00,VWS V14.01,2013-02-04 15:50:00,
2013-02-04 10:55:00,24.0,22.0,29.93,SE,144,0.0,2.0,92,0.00,,,0.00,VWS V14.01,2013-02-04 15:55:00,
2013-02-04 11:00:00,24.0,22.0,29.93,SE,144,0.0,2.0,92,0.00,,,0.00,VWS V14.01,2013-02-04 16:00:00,
2013-02-04 11:05:00,24.1,22.1,29.93,SE,144,0.0,0.0,92,0.00,,,0.00,VWS V14.01,2013-02-04 16:05:00,
2013-02-04 11:10:00,24.2,22.2,29.93,SE,144,0.0,1.0,92,0.00,,,0.00,VWS V14.01,2013-02-04 16:10:00,
2013-02-04 11:15:00,24.2,22.0,29.93,SE,144,0.0,1.0,91,0.00,,,0.00,VWS V14.01,2013-02-04 16:15:00,
2013-02-04 11:20:00,24.3,22.1,29.92,SE,144,0.0,1.0,91,0.00,,,0.00,VWS V14.01,2013-02-04 16:20:00,
2013-02-04 11:25:00,24.3,22.1,29.92,SE,144,0.0,1.0,91,0.00,,,0.00,VWS V14.01,2013-02-04 16:25:00,
2013-02-04 11:30:00,24.4,22.2,29.92,SE,124,0.0,2.0,91,0.00,,,0.00,VWS V14.01,2013-02-04 16:30:00,
2013-02-04 11:35:00,24.5,22.2,29.92,SE,141,0.0,3.0,91,0.00,,,0.00,VWS V14.01,2013-02-04 16:35:00,
2013-02-04 11:40:00,24.6,22.4,29.92,ESE,109,1.0,3.0,91,0.00,,,0.00,VWS V14.01,2013-02-04 16:40:00,
2013-02-04 11:45:00,24.7,22.5,29.93,SSW,209,0.0,3.0,91,0.00,,,0.00,VWS V14.01,2013-02-04 16:45:00,
2013-02-04 11:50:00,24.8,22.3,29.92,SSW,196,0.0,3.0,90,0.00,,,0.00,VWS V14.01,2013-02-04 16:50:00,
2013-02-04 11:55:00,24.7,22.2,29.92,SSW,196,0.0,3.0,90,0.00,,,0.00,VWS V14.01,2013-02-04 16:55:00,
2013-02-04 12:00:00,24.7,22.2,29.92,SSE,148,0.0,3.0,90,0.00,,,0.00,VWS V14.01,2013-02-04 17:00:00,
2013-02-04 12:05:00,24.8,22.3,29.92,SE,140,0.0,3.0,90,0.00,,,0.00,VWS V14.01,2013-02-04 17:05:00,
2013-02-04 12:10:00,24.9,22.4,29.92,East,97,2.0,3.0,90,0.00,,,0.00,VWS V14.01,2013-02-04 17:10:00,
2013-02-04 12:15:00,24.9,22.1,29.91,East,86,1.0,3.0,89,0.00,,,0.00,VWS V14.01,2013-02-04 17:15:00,
2013-02-04 12:20:00,24.8,22.0,29.91,SSE,157,1.0,3.0,89,0.00,,,0.00,VWS V14.01,2013-02-04 17:20:00,
2013-02-04 12:25:00,24.9,22.1,29.91,SSE,157,0.0,3.0,89,0.00,,,0.00,VWS V14.01,2013-02-04 17:25:00,
2013-02-04 12:30:00,25.0,22.5,29.91,SSE,148,0.0,3.0,90,0.00,,,0.00,VWS V14.01,2013-02-04 17:30:00,
2013-02-04 12:35:00,25.2,22.7,29.90,SSE,148,0.0,1.0,90,0.00,,,0.00,VWS V14.01,2013-02-04 17:35:00,
2013-02-04 12:40:00,25.2,22.4,29.90,SE,141,0.0,2.0,89,0.00,,,0.00,VWS V14.01,2013-02-04 17:40:00,
2013-02-04 12:45:00,25.3,22.5,29.90,SE,141,0.0,2.0,89,0.00,,,0.00,VWS V14.01,2013-02-04 17:45:00,
2013-02-04 12:50:00,25.4,22.6,29.89,SE,141,0.0,1.0,89,0.00,,,0.00,VWS V14.01,2013-02-04 17:50:00,
2013-02-04 12:55:00,25.6,22.8,29.89,SE,140,1.0,1.0,89,0.00,,,0.00,VWS V14.01,2013-02-04 17:55:00,
2013-02-04 13:00:00,25.7,22.9,29.89,ESE,119,1.0,4.0,89,0.00,,,0.00,VWS V14.01,2013-02-04 18:00:00,
2013-02-04 13:05:00,25.6,22.5,29.89,South,190,0.0,4.0,88,0.00,,,0.00,VWS V14.01,2013-02-04 18:05:00,
2013-02-04 13:10:00,25.8,22.7,29.89,South,190,0.0,4.0,88,0.00,,,0.00,VWS V14.01,2013-02-04 18:10:00,
2013-02-04 13:15:00,25.9,22.8,29.89,East,90,0.0,2.0,88,0.00,,,0.00,VWS V14.01,2013-02-04 18:15:00,
2013-02-04 13:20:00,25.9,22.6,29.89,SE,125,0.0,2.0,87,0.00,,,0.00,VWS V14.01,2013-02-04 18:20:00,
2013-02-04 13:25:00,25.9,22.6,29.89,ESE,123,0.0,2.0,87,0.00,,,0.00,VWS V14.01,2013-02-04 18:25:00,
2013-02-04 13:30:00,25.9,22.6,29.89,SE,127,0.0,2.0,87,0.00,,,0.00,VWS V14.01,2013-02-04 18:30:00,
2013-02-04 13:35:00,26.0,22.7,29.89,SSE,164,0.0,2.0,87,0.00,,,0.00,VWS V14.01,2013-02-04 18:35:00,
2013-02-04 13:40:00,25.9,22.3,29.89,NE,50,0.0,2.0,86,0.00,,,0.00,VWS V14.01,2013-02-04 18:40:00,
2013-02-04 13:45:00,25.9,22.3,29.89,NE,51,0.0,2.0,86,0.00,,,0.00,VWS V14.01,2013-02-04 18:45:00,
2013-02-04 13:50:00,25.9,22.3,29.89,ENE,58,0.0,2.0,86,0.00,,,0.00,VWS V14.01,2013-02-04 18:50:00,
2013-02-04 13:55:00,26.0,22.4,29.89,ENE,58,0.0,2.0,86,0.00,,,0.00,VWS V14.01,2013-02-04 18:55:00,
2013-02-04 14:00:00,25.9,22.3,29.89,ENE,58,0.0,2.0,86,0.00,,,0.00,VWS V14.01,2013-02-04 19:00:00,
2013-02-04 14:05:00,26.0,22.4,29.88,ENE,58,0.0,2.0,86,0.00,,,0.00,VWS V14.01,2013-02-04 19:05:00,
2013-02-04 14:10:00,26.0,22.4,29.89,ENE,57,0.0,2.0,86,0.00,,,0.00,VWS V14.01,2013-02-04 19:10:00,
2013-02-04 14:15:00,25.9,22.3,29.89,ENE,57,1.0,2.0,86,0.00,,,0.00,VWS V14.01,2013-02-04 19:15:00,
2013-02-04 14:20:00,25.9,22.3,29.89,ENE,57,0.0,2.0,86,0.00,,,0.00,VWS V14.01,2013-02-04 19:20:00,
2013-02-04 14:25:00,25.9,22.3,29.89,ENE,57,0.0,1.0,86,0.00,,,0.00,VWS V14.01,2013-02-04 19:25:00,
2013-02-04 14:30:00,26.0,22.4,29.89,ENE,57,0.0,1.0,86,0.00,,,0.00,VWS V14.01,2013-02-04 19:30:00,
2013-02-04 14:35:00,26.0,22.4,29.88,ENE,57,0.0,1.0,86,0.00,,,0.00,VWS V14.01,2013-02-04 19:35:00,
2013-02-04 14:40:00,26.0,22.4,29.88,ENE,57,0.0,1.0,86,0.00,,,0.00,VWS V14.01,2013-02-04 19:40:00,
2013-02-04 14:45:00,26.2,22.6,29.88,ENE,57,0.0,0.0,86,0.00,,,0.00,VWS V14.01,2013-02-04 19:45:00,
2013-02-04 14:50:00,26.3,22.7,29.88,ENE,61,0.0,2.0,86,0.00,,,0.00,VWS V14.01,2013-02-04 19:50:00,
2013-02-04 14:55:00,26.3,22.4,29.88,South,169,0.0,2.0,85,0.00,,,0.00,VWS V14.01,2013-02-04 19:55:00,
2013-02-04 15:00:00,26.5,22.9,29.88,South,169,0.0,2.0,86,0.00,,,0.00,VWS V14.01,2013-02-04 20:00:00,
2013-02-04 15:05:00,26.5,22.6,29.88,ESE,120,0.0,1.0,85,0.00,,,0.00,VWS V14.01,2013-02-04 20:05:00,
2013-02-04 15:10:00,26.4,22.5,29.88,ESE,120,0.0,1.0,85,0.00,,,0.00,VWS V14.01,2013-02-04 20:10:00,
2013-02-04 15:15:00,26.4,22.5,29.88,ESE,120,0.0,1.0,85,0.00,,,0.00,VWS V14.01,2013-02-04 20:15:00,
2013-02-04 15:20:00,26.5,22.6,29.89,ESE,120,0.0,1.0,85,0.00,,,0.00,VWS V14.01,2013-02-04 20:20:00,
2013-02-04 15:25:00,26.3,22.4,29.88,ESE,117,0.0,2.0,85,0.00,,,0.00,VWS V14.01,2013-02-04 20:25:00,
2013-02-04 15:30:00,26.2,22.3,29.89,ESE,117,0.0,2.0,85,0.00,,,0.00,VWS V14.01,2013-02-04 20:30:00,
2013-02-04 15:35:00,26.2,22.6,29.89,ESE,117,0.0,1.0,86,0.00,,,0.00,VWS V14.01,2013-02-04 20:35:00,
2013-02-04 15:40:00,26.3,22.7,29.89,ESE,117,0.0,1.0,86,0.00,,,0.00,VWS V14.01,2013-02-04 20:40:00,
2013-02-04 15:45:00,26.3,22.7,29.89,ESE,117,0.0,1.0,86,0.00,,,0.00,VWS V14.01,2013-02-04 20:45:00,
2013-02-04 15:50:00,26.4,22.8,29.90,ESE,117,0.0,1.0,86,0.00,,,0.00,VWS V14.01,2013-02-04 20:50:00,
2013-02-04 15:55:00,26.5,22.6,29.89,ESE,117,0.0,2.0,85,0.00,,,0.00,VWS V14.01,2013-02-04 20:55:00,
2013-02-04 16:00:00,26.5,22.6,29.89,ESE,117,0.0,2.0,85,0.00,,,0.00,VWS V14.01,2013-02-04 21:00:00,
2013-02-04 16:05:00,26.6,22.7,29.89,ESE,117,0.0,0.0,85,0.00,,,0.00,VWS V14.01,2013-02-04 21:05:00,
2013-02-04 16:09:00,26.7,22.8,29.89,ENE,57,0.0,2.0,85,0.00,,,0.00,VWS V14.01,2013-02-04 21:09:00,
2013-02-04 16:14:00,26.7,22.8,29.89,ENE,57,0.0,2.0,85,0.00,,,0.00,VWS V14.01,2013-02-04 21:14:00,
2013-02-04 16:19:00,26.7,22.8,29.89,ENE,57,0.0,2.0,85,0.00,,,0.00,VWS V14.01,2013-02-04 21:19:00,
2013-02-04 16:24:00,26.6,22.7,29.89,ENE,57,1.0,2.0,85,0.00,,,0.00,VWS V14.01,2013-02-04 21:24:00,
2013-02-04 16:29:00,26.6,22.7,29.90,NNW,346,3.0,3.0,85,0.00,,,0.00,VWS V14.01,2013-02-04 21:29:00,
2013-02-04 16:34:00,26.5,22.6,29.90,North,350,0.0,3.0,85,0.00,,,0.00,VWS V14.01,2013-02-04 21:34:00,
2013-02-04 16:39:00,26.5,22.6,29.89,North,350,0.0,3.0,85,0.00,,,0.00,VWS V14.01,2013-02-04 21:39:00,
2013-02-04 16:44:00,26.5,22.9,29.89,North,350,1.0,1.0,86,0.00,,,0.00,VWS V14.01,2013-02-04 21:44:00,
2013-02-04 16:49:00,26.5,22.9,29.89,ENE,60,0.0,2.0,86,0.00,,,0.00,VWS V14.01,2013-02-04 21:49:00,
2013-02-04 16:54:00,26.4,22.8,29.88,ENE,60,0.0,2.0,86,0.00,,,0.00,VWS V14.01,2013-02-04 21:54:00,
2013-02-04 16:59:00,26.3,22.4,29.88,ENE,60,0.0,1.0,85,0.00,,,0.00,VWS V14.01,2013-02-04 21:59:00,
2013-02-04 17:04:00,26.3,22.7,29.88,NE,49,0.0,3.0,86,0.00,,,0.00,VWS V14.01,2013-02-04 22:04:00,
2013-02-04 17:09:00,26.2,22.6,29.88,NE,49,0.0,3.0,86,0.00,,,0.00,VWS V14.01,2013-02-04 22:09:00,
2013-02-04 17:14:00,26.2,22.6,29.88,NE,49,0.0,3.0,86,0.00,,,0.00,VWS V14.01,2013-02-04 22:14:00,
2013-02-04 17:19:00,26.1,22.5,29.87,NE,49,0.0,0.0,86,0.00,,,0.00,VWS V14.01,2013-02-04 22:19:00,
2013-02-04 17:24:00,26.0,22.4,29.88,NE,49,0.0,0.0,86,0.00,,,0.00,VWS V14.01,2013-02-04 22:24:00,
2013-02-04 17:29:00,26.0,22.4,29.88,NE,49,0.0,1.0,86,0.00,,,0.00,VWS V14.01,2013-02-04 22:29:00,
2013-02-04 17:34:00,25.9,22.3,29.88,North,10,0.0,1.0,86,0.00,,,0.00,VWS V14.01,2013-02-04 22:34:00,
2013-02-04 17:39:00,25.8,22.5,29.88,North,10,1.0,1.0,87,0.00,,,0.00,VWS V14.01,2013-02-04 22:39:00,
2013-02-04 17:44:00,25.7,22.4,29.88,North,10,0.0,1.0,87,0.00,,,0.00,VWS V14.01,2013-02-04 22:44:00,
2013-02-04 17:49:00,25.6,22.3,29.88,North,11,0.0,1.0,87,0.00,,,0.00,VWS V14.01,2013-02-04 22:49:00,
2013-02-04 17:54:00,25.5,22.2,29.87,North,11,0.0,1.0,87,0.00,,,0.00,VWS V14.01,2013-02-04 22:54:00,
2013-02-04 17:59:00,25.4,22.1,29.88,North,11,0.0,1.0,87,0.00,,,0.00,VWS V14.01,2013-02-04 22:59:00,
2013-02-04 18:04:00,25.4,22.4,29.88,North,11,0.0,0.0,88,0.00,,,0.00,VWS V14.01,2013-02-04 23:04:00,
2013-02-04 18:09:00,25.3,22.2,29.89,North,11,0.0,1.0,88,0.00,,,0.00,VWS V14.01,2013-02-04 23:09:00,
2013-02-04 18:14:00,25.2,22.1,29.89,North,11,0.0,1.0,88,0.00,,,0.00,VWS V14.01,2013-02-04 23:14:00,
2013-02-04 18:19:00,24.9,21.9,29.89,North,11,0.0,1.0,88,0.00,,,0.00,VWS V14.01,2013-02-04 23:19:00,
2013-02-04 18:24:00,24.7,21.7,29.90,North,11,0.0,0.0,88,0.00,,,0.00,VWS V14.01,2013-02-04 23:24:00,
2013-02-04 18:29:00,24.4,21.4,29.90,North,11,0.0,0.0,88,0.00,,,0.00,VWS V14.01,2013-02-04 23:29:00,
2013-02-04 18:34:00,24.2,21.2,29.91,North,11,0.0,0.0,88,0.00,,,0.00,VWS V14.01,2013-02-04 23:34:00,
2013-02-04 18:39:00,24.0,21.2,29.90,North,11,0.0,0.0,89,0.00,,,0.00,VWS V14.01,2013-02-04 23:39:00,
2013-02-04 18:44:00,23.9,21.1,29.91,North,11,0.0,0.0,89,0.00,,,0.00,VWS V14.01,2013-02-04 23:44:00,
2013-02-04 18:49:00,23.8,21.0,29.91,North,11,0.0,0.0,89,0.00,,,0.00,VWS V14.01,2013-02-04 23:49:00,
2013-02-04 18:54:00,23.6,20.8,29.92,North,11,0.0,0.0,89,0.00,,,0.00,VWS V14.01,2013-02-04 23:54:00,
2013-02-04 18:59:00,23.4,20.6,29.92,North,11,0.0,0.0,89,0.00,,,0.00,VWS V14.01,2013-02-04 23:59:00,
2013-02-04 19:04:00,23.3,20.5,29.92,North,11,0.0,0.0,89,0.00,,,0.00,VWS V14.01,2013-02-05 00:04:00,
2013-02-04 19:09:00,23.1,20.6,29.92,North,11,0.0,0.0,90,0.00,,,0.00,VWS V14.01,2013-02-05 00:09:00,
2013-02-04 19:14:00,23.1,20.6,29.92,North,11,0.0,0.0,90,0.00,,,0.00,VWS V14.01,2013-02-05 00:14:00,
2013-02-04 19:19:00,23.0,20.5,29.93,North,11,0.0,0.0,90,0.00,,,0.00,VWS V14.01,2013-02-05 00:19:00,
2013-02-04 19:24:00,23.0,20.8,29.93,North,11,0.0,0.0,91,0.00,,,0.00,VWS V14.01,2013-02-05 00:24:00,
2013-02-04 19:29:00,22.9,20.7,29.94,North,11,0.0,0.0,91,0.00,,,0.00,VWS V14.01,2013-02-05 00:29:00,
2013-02-04 19:34:00,22.9,20.7,29.94,North,11,0.0,0.0,91,0.00,,,0.00,VWS V14.01,2013-02-05 00:34:00,
2013-02-04 19:39:00,22.9,20.7,29.94,North,11,0.0,0.0,91,0.00,,,0.00,VWS V14.01,2013-02-05 00:39:00,
2013-02-04 19:44:00,22.8,20.6,29.94,North,11,0.0,0.0,91,0.00,,,0.00,VWS V14.01,2013-02-05 00:44:00,
2013-02-04 19:49:00,22.8,20.6,29.94,North,11,0.0,0.0,91,0.00,,,0.00,VWS V14.01,2013-02-05 00:49:00,
2013-02-04 19:54:00,22.9,20.9,29.94,North,11,0.0,0.0,92,0.00,,,0.00,VWS V14.01,2013-02-05 00:54:00,
2013-02-04 19:59:00,22.9,20.9,29.94,North,11,0.0,0.0,92,0.00,,,0.00,VWS V14.01,2013-02-05 00:59:00,
2013-02-04 20:04:00,23.0,21.0,29.94,North,11,0.0,0.0,92,0.00,,,0.00,VWS V14.01,2013-02-05 01:04:00,
2013-02-04 20:09:00,23.1,21.1,29.94,North,11,0.0,0.0,92,0.00,,,0.00,VWS V14.01,2013-02-05 01:09:00,
2013-02-04 20:14:00,23.1,21.1,29.94,North,11,0.0,0.0,92,0.00,,,0.00,VWS V14.01,2013-02-05 01:14:00,
2013-02-04 20:19:00,23.1,21.1,29.95,North,11,0.0,0.0,92,0.00,,,0.00,VWS V14.01,2013-02-05 01:19:00,
2013-02-04 20:24:00,23.1,21.4,29.95,North,11,0.0,0.0,93,0.00,,,0.00,VWS V14.01,2013-02-05 01:24:00,
2013-02-04 20:29:00,23.1,21.4,29.96,North,11,0.0,0.0,93,0.00,,,0.00,VWS V14.01,2013-02-05 01:29:00,
2013-02-04 20:34:00,23.1,21.4,29.96,North,11,0.0,0.0,93,0.00,,,0.00,VWS V14.01,2013-02-05 01:34:00,
2013-02-04 20:39:00,23.1,21.4,29.96,North,11,0.0,0.0,93,0.00,,,0.00,VWS V14.01,2013-02-05 01:39:00,
2013-02-04 20:44:00,23.1,21.4,29.96,North,11,0.0,0.0,93,0.00,,,0.00,VWS V14.01,2013-02-05 01:44:00,
2013-02-04 20:49:00,23.2,21.5,29.95,WNW,288,1.0,5.0,93,0.00,,,0.00,VWS V14.01,2013-02-05 01:49:00,
2013-02-04 20:54:00,23.4,21.7,29.96,WNW,289,1.0,5.0,93,0.00,,,0.00,VWS V14.01,2013-02-05 01:54:00,
2013-02-04 20:59:00,23.6,21.9,29.95,WNW,289,1.0,2.0,93,0.00,,,0.00,VWS V14.01,2013-02-05 01:59:00,
2013-02-04 21:04:00,23.7,22.0,29.95,WNW,289,1.0,3.0,93,0.00,,,0.00,VWS V14.01,2013-02-05 02:04:00,
2013-02-04 21:09:00,23.7,22.0,29.95,WNW,289,0.0,3.0,93,0.00,,,0.00,VWS V14.01,2013-02-05 02:09:00,
2013-02-04 21:14:00,23.8,22.1,29.95,WNW,289,0.0,3.0,93,0.00,,,0.00,VWS V14.01,2013-02-05 02:14:00,
2013-02-04 21:19:00,23.8,21.8,29.95,WNW,289,1.0,2.0,92,0.00,,,0.00,VWS V14.01,2013-02-05 02:19:00,
2013-02-04 21:24:00,23.7,21.7,29.95,WNW,291,0.0,2.0,92,0.00,,,0.00,VWS V14.01,2013-02-05 02:24:00,
2013-02-04 21:29:00,23.6,21.6,29.95,WNW,291,0.0,2.0,92,0.00,,,0.00,VWS V14.01,2013-02-05 02:29:00,
2013-02-04 21:34:00,23.5,21.5,29.96,WNW,291,0.0,1.0,92,0.00,,,0.00,VWS V14.01,2013-02-05 02:34:00,
2013-02-04 21:39:00,23.5,21.5,29.96,WNW,291,0.0,1.0,92,0.00,,,0.00,VWS V14.01,2013-02-05 02:39:00,
2013-02-04 21:44:00,23.4,21.2,29.96,WNW,291,0.0,0.0,91,0.00,,,0.00,VWS V14.01,2013-02-05 02:44:00,
2013-02-04 21:49:00,23.3,21.1,29.96,WNW,291,0.0,0.0,91,0.00,,,0.00,VWS V14.01,2013-02-05 02:49:00,
2013-02-04 21:54:00,23.3,21.1,29.96,WNW,291,1.0,1.0,91,0.00,,,0.00,VWS V14.01,2013-02-05 02:54:00,
2013-02-04 21:59:00,23.2,21.0,29.95,WNW,291,0.0,1.0,91,0.00,,,0.00,VWS V14.01,2013-02-05 02:59:00,
2013-02-04 22:04:00,23.0,20.8,29.95,WNW,291,0.0,1.0,91,0.00,,,0.00,VWS V14.01,2013-02-05 03:04:00,
2013-02-04 22:09:00,22.9,20.7,29.95,WNW,291,0.0,0.0,91,0.00,,,0.00,VWS V14.01,2013-02-05 03:09:00,
2013-02-04 22:14:00,22.7,20.5,29.96,WNW,291,0.0,1.0,91,0.00,,,0.00,VWS V14.01,2013-02-05 03:14:00,
2013-02-04 22:19:00,22.6,20.4,29.95,WNW,291,0.0,1.0,91,0.00,,,0.00,VWS V14.01,2013-02-05 03:19:00,
2013-02-04 22:24:00,22.6,20.4,29.96,WNW,291,0.0,1.0,91,0.00,,,0.00,VWS V14.01,2013-02-05 03:24:00,
2013-02-04 22:29:00,22.6,20.4,29.97,WNW,291,0.0,1.0,91,0.00,,,0.00,VWS V14.01,2013-02-05 03:29:00,
2013-02-04 22:34:00,22.5,20.3,29.97,WNW,291,0.0,1.0,91,0.00,,,0.00,VWS V14.01,2013-02-05 03:34:00,
2013-02-04 22:39:00,22.5,20.3,29.98,WNW,291,0.0,1.0,91,0.00,,,0.00,VWS V14.01,2013-02-05 03:39:00,
2013-02-04 22:44:00,22.5,20.3,29.97,WNW,291,0.0,1.0,91,0.00,,,0.00,VWS V14.01,2013-02-05 03:44:00,
2013-02-04 22:49:00,22.4,20.2,29.97,WNW,291,0.0,0.0,91,0.00,,,0.00,VWS V14.01,2013-02-05 03:49:00,
2013-02-04 22:54:00,22.3,20.1,29.97,WNW,291,0.0,0.0,91,0.00,,,0.00,VWS V14.01,2013-02-05 03:54:00,
2013-02-04 22:59:00,22.2,20.0,29.96,WNW,291,0.0,0.0,91,0.00,,,0.00,VWS V14.01,2013-02-05 03:59:00,
2013-02-04 23:04:00,22.1,19.9,29.96,WNW,291,0.0,0.0,91,0.00,,,0.00,VWS V14.01,2013-02-05 04:04:00,
2013-02-04 23:09:00,21.9,19.7,29.96,WNW,291,0.0,0.0,91,0.00,,,0.00,VWS V14.01,2013-02-05 04:09:00,
2013-02-04 23:14:00,21.8,19.6,29.96,WNW,291,0.0,0.0,91,0.00,,,0.00,VWS V14.01,2013-02-05 04:14:00,
2013-02-04 23:19:00,21.6,19.4,29.96,WNW,291,0.0,0.0,91,0.00,,,0.00,VWS V14.01,2013-02-05 04:19:00,
2013-02-04 23:24:00,21.4,19.2,29.96,WNW,291,0.0,0.0,91,0.00,,,0.00,VWS V14.01,2013-02-05 04:24:00,
2013-02-04 23:29:00,21.1,18.9,29.96,WNW,291,0.0,0.0,91,0.00,,,0.00,VWS V14.01,2013-02-05 04:29:00,
2013-02-04 23:34:00,20.8,18.6,29.96,WNW,291,0.0,0.0,91,0.00,,,0.00,VWS V14.01,2013-02-05 04:34:00,
2013-02-04 23:39:00,20.6,18.4,29.95,WNW,291,0.0,0.0,91,0.00,,,0.00,VWS V14.01,2013-02-05 04:39:00,
2013-02-04 23:44:00,20.4,18.2,29.95,WNW,291,0.0,0.0,91,0.00,,,0.00,VWS V14.01,2013-02-05 04:44:00,
2013-02-04 23:49:00,20.3,18.1,29.95,WNW,291,0.0,0.0,91,0.00,,,0.00,VWS V14.01,2013-02-05 04:49:00,
2013-02-04 23:54:00,20.1,17.9,29.96,WNW,291,0.0,0.0,91,0.00,,,0.00,VWS V14.01,2013-02-05 04:54:00,
2013-02-04 23:59:00,20.0,17.8,29.96,WNW,291,0.0,0.0,91,0.00,,,0.00,VWS V14.01,2013-02-05 04:59:00,